Location: Dugenta
(41.1333°N, 14.4500°E)
Time: 14:57:06
(UTC+00:00)

BREEZE-M DEB (TANK) - Pass Details

Date: 03 March 2021
Orbit: 351 x 16374 km, 49.4° (Epoch: 14 April)

Event Time Altitude Azimuth Distance (km) Brightness Sun altitude
Rises 17:12:41 0° 226° (SW) 6,913 8.8 -4.0°
Reaches altitude 10° 17:19:05 10° 224° (SW) 4,153 7.5 -5.2°
Maximum altitude 17:26:56 54° 149° (SSE) 838 3.1 -6.7°
Drops below altitude 10° 17:29:53 10° 70° (ENE) 1,585 4.1 -7.3°
Enters shadow 17:30:05 - 69° (ENE) 1,677 4.2 -7.3°
